STARLINK-4043 (52836 NORAD) Tracking and Keplerian Element Data

This shows tracking and keplerian element data for the satellite.

Feedback or suggestion? Click here.




ElementValue
Catalog52836
NameSTARLINK-4043
Epoch Orbit130
Epoch Day270.00001157
Epoch Year2022
RAAN289.0907
Inclination53.216
Eccentricity0.0001866
Argument of Perigee50.9965
Mean Anonmoly308.6879
Mean Motion15.08833289
Decay Rate-1.533E-05
L11 52836U 22062G 22270.00001157 -.00001533 00000+0 -78219-4 0 9997
L22 52836 53.2160 289.0907 0001866 50.9965 308.6879 15.08833289 1305

Live tracking and technical data element details for STARLINK-4043 (NORAD 52836). STARLINK-4043 can be tracked NOW for your location showing map with azimuth and elevation plus other details from your city location.

Track the satellite on the map from your city or location and see movement details for azimuth, elevation, latitude, longitude, range, height, and movement on the map or in text.







IsCatalogInMostPopularTable: catalog: 52836, numindb: 6
Update: records affected: 1



GetName: 52836 STARLINK-4043

Hit Count: updated at: Thu, 06 Oct 2022 03:33:21 GMT